Wind_Speed
16 15 15 16 17 18 18 19 16 9 17 16 15 15 15 12 10 11 4 4 3 3 1 2 3 4 4 3 5 6 4 2 3 2 3 4 3 5 1 2 4 5 5 3 3 3 4 6 5 5 4 3 4 1
16 16 16 17 17 18 17 20 20 15 11 19 17 16 18 15 13 14 4 9 11 13 3 6 10 8 3 3 5 2 2 5 6 4 0 4 2 2 3 2 1 1 6 4 7 4 0 5 3 4 5 5 3 2
16 17 18 18 18 18 18 17 20 16 12 18 19 17 20 18 15 19 11 16 9 6 4 2 2 5 5 2 3 5 3 4 3 2 4 3 3 4 4 5 3 3 3 2 2 2 5 6 4 5 5 5 4 2
14 16 17 18 19 17 19 19 20 18 15 15 21 20 22 19 18 22 13 17 9 10 4 2 2 2 5 2 4 1 7 8 8 3 3 3 3 2 4 3 3 4 5 5 3 1 4 4 5 7 6 8 6 3
15 16 17 17 18 18 19 20 21 20 14 13 24 20 24 20 23 20 12 19 8 4 4 2 1 6 8 6 8 8 13 5 3 2 3 2 2 3 1 2 3 6 7 5 5 9 5 5 9 11 7 5 6 3
16 18 18 19 18 18 20 24 23 21 18 13 26 22 25 21 28 15 3 12 14 9 5 3 3 2 6 13 17 14 9 6 3 3 2 1 1 3 3 4 4 5 5 5 4 7 3 12 15 14 7 10 7 7
17 19 20 20 20 21 22 24 25 22 22 12 29 25 24 30 31 6 5 6 27 11 4 3 2 3 1 4 4 5 6 2 3 2 2 2 1 3 3 4 3 8 7 7 11 15 7 5 6 17 14 10 12 8
19 22 22 22 25 24 25 24 25 25 19 12 30 29 29 31 19 3 3 23 22 11 7 4 1 1 4 1 2 3 2 3 5 2 2 2 2 2 3 6 5 7 9 10 9 3 11 16 21 17 14 13 9 6
21 24 25 25 27 28 27 27 26 24 18 13 32 34 30 11 7 9 21 20 7 3 5 3 8 5 5 2 2 2 2 2 2 2 2 3 0 4 8 8 14 13 10 13 7 11 15 15 11 13 14 10 7 5
22 24 27 23 28 31 26 27 25 24 22 34 39 7 3 12 19 28 7 2 4 3 3 3 2 3 4 2 1 3 2 3 2 3 3 2 4 5 6 8 14 16 13 16 16 9 10 11 11 7 9 13 11 9
23 24 27 23 29 32 26 27 24 24 30 9 5 1 10 44 11 3 3 4 1 1 2 4 3 5 3 4 3 1 3 1 3 3 5 3 4 5 9 11 14 19 26 22 14 18 22 24 14 11 15 15 12 10
24 23 25 28 33 27 27 28 23 25 12 19 11 8 16 4 2 6 6 2 5 9 4 7 5 4 3 4 4 2 3 2 4 4 3 4 5 6 11 15 16 22 24 20 25 23 25 25 26 24 22 18 13 10
26 24 25 29 33 24 30 29 20 24 22 19 5 2 4 3 6 14 14 5 6 6 7 5 5 4 3 2 4 3 4 4 5 2 4 6 2 6 10 14 14 23 26 24 21 27 28 27 26 25 22 17 15 10
25 25 27 28 36 24 31 26 17 30 11 3 7 7 6 7 8 6 9 8 4 7 13 9 5 4 3 3 3 6 2 3 1 3 7 4 8 13 12 13 16 18 25 23 24 26 27 28 26 23 21 19 16 12
24 25 28 36 14 24 26 23 24 20 6 6 6 6 8 3 2 4 7 7 4 13 12 6 5 3 3 5 2 5 3 6 7 6 4 4 13 17 16 16 17 17 24 24 26 26 27 28 27 24 20 18 15 13
24 25 20 23 9 16 16 14 24 12 4 5 7 3 0 3 2 2 5 5 9 14 5 3 5 5 3 7 5 9 10 8 5 5 3 9 16 16 16 17 24 26 28 28 28 29 30 30 29 26 21 18 15 12
20 10 17 26 19 5 12 11 10 6 5 5 4 2 5 2 5 4 4 7 15 14 10 5 7 7 5 3 4 6 7 5 4 4 6 13 21 19 20 25 26 28 28 30 29 30 32 32 28 27 23 19 16 12
22 22 23 22 20 9 10 16 6 3 5 4 3 3 4 3 5 3 4 15 10 8 7 7 7 4 8 10 5 5 5 2 2 5 8 11 18 25 28 28 29 31 31 30 31 31 32 32 28 26 25 22 18 14
21 22 21 19 16 3 3 7 7 3 6 2 2 2 2 3 3 4 10 14 2 6 9 2 5 6 5 5 5 5 5 4 5 4 4 16 24 27 28 29 30 30 30 31 31 29 30 34 30 30 27 25 22 17
22 21 21 18 14 5 3 3 4 3 4 3 1 2 2 2 3 4 11 3 5 5 3 5 5 4 6 5 5 8 9 10 12 9 8 8 21 27 28 31 29 30 29 28 28 28 28 29 28 29 28 26 24 20
21 22 18 14 6 8 3 2 3 3 2 3 2 7 2 1 4 3 9 2 2 4 6 5 4 3 3 3 11 17 13 18 15 14 14 11 22 25 26 26 29 30 28 27 26 26 28 27 33 31 29 26 23 19
11 13 5 12 5 5 3 4 2 1 2 2 4 2 5 3 5 5 2 4 4 11 4 5 4 5 6 8 11 23 29 21 18 24 24 33 13 18 23 30 31 27 29 30 31 29 27 32 36 33 30 26 23 21
13 8 5 6 4 7 4 6 4 4 3 5 5 6 4 4 4 5 4 4 4 3 3 3 4 8 7 16 22 21 26 28 14 20 26 26 25 27 29 31 33 31 27 28 31 31 32 39 36 35 30 28 26 23
8 5 5 6 7 6 3 4 2 2 1 3 6 5 5 4 5 3 5 4 3 1 1 10 12 10 8 10 9 11 24 24 21 22 28 30 21 24 29 30 30 30 31 33 33 32 33 35 36 35 34 32 29 26
6 9 5 6 4 5 4 4 4 3 4 2 2 3 4 4 5 6 5 6 3 5 4 9 10 13 10 8 8 15 26 33 24 15 26 28 27 25 23 24 25 28 35 35 32 33 33 34 35 36 35 34 32 28
10 10 10 10 5 6 7 6 7 7 4 3 5 5 3 4 5 7 10 8 6 9 10 12 12 7 10 11 15 12 24 30 29 20 29 37 39 37 28 19 22 25 38 38 38 35 34 34 34 35 35 34 31 29
7 6 3 2 4 4 4 2 3 3 6 7 4 8 7 7 9 5 3 13 7 7 26 24 21 14 15 13 20 24 30 33 30 29 29 35 33 34 44 41 37 40 46 43 43 45 42 40 37 37 34 33 33 31
5 6 8 7 4 4 5 5 7 9 6 4 3 8 11 8 8 5 5 8 22 34 33 24 20 16 22 31 33 35 32 29 27 30 28 21 20 23 26 24 31 38 45 45 46 47 45 43 41 38 37 37 34 30
3 4 4 7 4 4 6 8 5 4 5 5 4 4 5 3 3 4 4 23 32 34 15 12 15 23 23 24 27 36 44 44 30 20 21 14 11 22 33 31 37 41 41 43 46 50 48 47 45 43 40 38 35 30
6 8 11 9 8 10 7 7 4 3 2 2 1 4 3 2 3 1 10 22 15 17 24 33 31 31 20 21 20 27 36 40 46 39 19 18 24 35 42 44 43 43 44 45 44 44 44 41 36 34 35 33 31 30
5 8 4 11 10 15 8 4 3 2 3 3 2 2 3 3 2 2 12 21 22 24 24 19 22 32 30 24 18 16 15 34 35 31 22 31 37 44 45 46 45 46 46 45 44 41 38 38 39 38 36 35 35 34
8 12 13 9 6 2 4 4 4 3 3 2 1 2 3 3 3 3 14 18 17 13 23 29 18 18 42 42 43 38 40 36 36 34 32 40 42 43 45 44 44 45 46 45 43 44 46 41 37 37 39 38 37 35
3 5 8 4 4 5 4 4 3 4 1 3 3 3 4 4 6 4 10 25 21 23 27 32 32 29 31 31 30 28 32 37 39 38 41 44 46 48 46 45 45 46 48 45 43 44 44 43 40 39 39 39 37 34
Wind_Direction
297 300 305 308 316 315 322 326 313 287 220 232 228 220 208 202 200 191 162 151 92 103 358 27 23 130 100 123 142 180 86 318 51 126 133 196 151 217 136 170 187 177 144 198 82 57 314 142 102 171 190 139 142 144
293 297 296 300 306 307 308 319 319 291 233 232 229 224 209 198 200 192 138 133 112 80 130 108 83 68 84 135 124 175 147 157 178 103 178 114 135 128 151 241 53 262 184 182 175 214 56 177 134 144 141 141 167 146
289 291 292 292 297 298 297 299 313 292 300 234 227 222 205 197 201 199 176 156 104 97 33 71 11 68 54 131 155 123 279 166 177 163 156 155 133 133 155 235 169 246 170 159 67 182 167 147 112 138 141 140 138 122
296 296 294 290 286 290 298 294 303 298 281 254 224 220 201 196 203 200 181 180 121 105 113 269 7 56 3 170 191 125 134 109 108 73 101 129 135 181 190 172 173 195 133 167 252 107 90 189 173 156 137 129 122 93
294 300 306 298 286 284 285 282 290 296 269 267 223 220 195 195 195 190 186 186 179 127 146 173 40 44 67 126 128 135 130 103 96 64 73 175 118 116 360 66 241 186 179 170 216 176 158 174 163 154 143 147 141 112
298 300 302 305 295 286 282 282 278 278 283 281 227 212 193 192 179 152 30 213 196 146 104 119 322 56 74 90 89 78 75 72 88 114 154 170 282 108 117 204 247 188 177 166 171 136 104 133 145 154 141 157 139 127
298 300 293 297 300 288 280 275 271 271 284 282 226 199 189 178 172 175 190 175 179 160 94 84 16 317 6 69 53 39 40 80 88 116 79 139 94 92 112 211 219 173 145 117 115 108 76 155 162 156 151 145 127 106
299 301 291 283 296 296 273 265 263 261 274 274 221 183 172 171 180 200 99 151 157 110 75 115 268 350 184 76 80 6 44 28 15 147 42 114 32 57 255 224 145 128 118 132 148 76 142 141 141 149 146 140 117 103
300 299 298 278 292 293 280 253 254 252 257 261 194 164 151 177 175 162 152 158 153 113 137 121 148 192 152 111 85 24 69 57 294 106 178 110 258 228 226 172 169 164 161 161 124 114 128 140 147 148 147 143 135 133
294 298 301 278 293 298 266 241 241 248 282 170 147 180 178 172 142 125 137 56 360 350 53 108 141 153 126 156 316 95 12 152 156 235 102 137 254 260 216 190 167 166 142 141 124 133 143 149 158 153 164 159 152 139
292 297 300 282 301 306 240 228 229 241 158 130 164 221 136 138 136 61 131 146 210 16 156 150 147 135 215 124 147 206 168 219 133 238 147 239 269 235 174 162 163 159 157 164 159 155 160 158 158 152 154 154 150 142
297 300 301 289 301 310 228 220 229 198 186 151 148 141 157 150 83 143 177 144 198 193 162 137 163 146 167 123 108 228 128 71 206 140 96 254 246 199 159 159 159 156 152 148 154 150 156 160 162 160 156 156 153 145
304 302 311 303 302 282 218 218 211 202 164 129 123 163 217 167 168 176 183 201 149 168 165 160 131 131 113 73 78 115 110 182 121 78 226 229 213 160 154 152 152 154 153 152 154 157 160 163 165 163 157 157 151 144
305 312 309 305 301 236 206 205 199 198 173 170 156 212 225 178 219 186 163 141 160 140 145 138 117 130 142 100 141 110 230 103 94 234 229 229 186 164 156 157 153 159 159 157 157 156 158 162 164 164 160 157 155 149
306 313 309 304 278 198 200 205 202 219 194 201 170 216 227 258 346 132 110 105 136 148 135 109 81 99 122 113 95 114 72 222 212 224 226 195 160 156 158 161 159 160 158 158 159 156 158 162 162 161 161 159 156 152
308 315 311 323 193 196 206 207 199 229 213 205 206 216 246 88 294 117 121 117 145 153 108 74 118 104 181 136 133 205 149 214 223 215 200 143 152 159 161 159 163 162 159 157 159 159 160 164 165 164 161 161 157 157
302 279 307 321 329 270 214 195 165 233 235 219 222 198 183 96 187 185 120 140 156 151 167 133 132 180 108 114 214 190 203 197 198 175 159 163 159 161 159 154 159 158 155 156 156 160 166 172 166 161 162 166 163 158
287 300 299 308 314 302 190 188 186 271 221 226 216 211 178 192 138 155 141 150 152 177 149 182 124 153 173 175 222 200 211 99 64 142 153 154 152 157 156 155 159 160 159 159 161 162 165 167 166 173 170 165 163 165
288 294 289 292 295 241 231 184 149 252 233 204 246 235 181 157 200 137 155 169 103 119 120 90 146 179 195 211 170 168 160 171 154 150 120 146 152 153 154 156 157 160 160 160 159 165 170 176 177 177 172 169 170 172
287 284 281 282 271 205 253 181 135 169 261 227 169 132 93 138 117 146 163 154 138 139 152 189 180 199 173 191 186 170 154 143 132 125 131 141 151 152 159 159 162 159 156 159 162 164 169 175 181 180 178 175 173 177
288 275 273 252 213 218 254 204 164 225 214 207 191 139 109 289 114 157 182 237 142 202 213 192 178 190 125 110 134 137 149 156 166 163 164 156 161 159 158 160 157 160 160 164 166 171 172 176 180 182 180 181 182 178
254 260 255 191 189 201 259 216 235 194 258 221 150 138 122 190 153 164 96 241 246 197 155 154 175 148 138 151 161 166 161 147 127 125 133 139 150 159 167 166 163 168 171 173 172 173 175 179 182 182 183 180 179 176
262 242 232 189 213 188 247 159 203 169 234 198 160 136 156 173 164 119 184 238 260 217 153 131 131 122 127 122 130 139 150 145 142 147 148 153 157 159 161 168 172 168 169 176 174 169 173 183 182 182 180 178 176 175
234 215 214 203 196 193 170 200 188 188 152 249 168 155 168 129 136 159 211 228 235 90 183 140 131 111 96 125 148 160 159 150 139 144 153 146 152 166 168 171 174 177 176 167 167 169 172 175 179 180 181 180 180 178
225 193 226 196 157 135 202 178 176 176 179 259 170 142 184 157 164 189 209 193 166 178 182 169 160 161 156 153 150 163 165 156 157 156 163 159 148 146 156 166 172 173 170 164 167 167 169 170 176 179 181 183 182 183
200 203 187 184 164 165 184 182 185 186 159 170 248 133 188 177 176 213 195 173 177 176 185 183 162 144 160 166 155 167 174 168 158 156 166 167 165 162 162 164 166 178 181 177 168 167 167 171 176 179 181 187 187 184
205 177 170 185 148 152 182 222 169 155 177 202 226 173 186 187 203 228 147 164 169 173 182 197 188 174 163 163 172 164 165 166 167 173 170 171 175 177 170 171 183 183 178 177 176 173 170 172 177 181 181 186 188 189
198 169 161 180 209 206 180 180 179 183 202 168 242 201 179 191 217 181 190 183 160 162 170 186 197 200 171 162 154 148 148 149 137 131 135 153 173 178 178 179 175 174 173 177 177 176 177 176 178 180 183 185 189 192
174 203 117 177 197 193 219 197 209 192 165 147 252 208 220 233 188 162 199 156 155 156 161 164 147 154 142 148 157 155 152 150 141 149 161 166 162 180 181 176 171 167 169 171 179 182 184 184 185 186 188 189 189 187
228 171 190 184 181 205 213 184 201 161 156 158 212 281 289 278 267 75 166 160 168 177 178 171 156 155 158 159 162 167 177 180 176 168 169 182 187 172 169 171 166 166 168 170 171 177 185 184 181 180 182 183 182 183
139 176 182 200 212 213 205 158 94 112 157 189 115 259 280 283 312 172 196 186 175 172 169 167 173 171 166 170 173 167 178 195 195 191 188 171 164 164 166 167 166 164 165 165 166 165 163 165 171 175 178 180 183 186
171 189 190 188 222 187 115 147 152 169 169 138 134 257 245 274 235 210 194 178 177 183 187 174 175 184 189 186 184 181 193 178 180 183 172 159 159 160 160 160 162 161 161 162 161 166 172 168 169 173 178 183 184 188
167 182 187 136 147 182 189 135 134 137 139 187 182 233 229 210 214 216 186 196 198 187 187 190 188 177 180 182 179 177 167 164 169 169 159 156 155 155 158 159 161 161 161 160 162 166 168 170 171 176 179 183 186 188
Height
812 810 809 809 804 803 802 799 799 798 800 803 805 809 812 815 818 820 821 823 824 845 854 854 854 853 863 869 883 887 895 901 911 908 914 911 905 907 901 900 904 914 937 950 963 962 900 913 922 922 923 922 924 924
808 807 806 806 803 801 798 797 796 795 796 800 802 806 809 813 815 818 821 823 824 832 855 855 855 855 856 858 866 878 876 881 882 895 907 910 906 916 910 899 908 918 909 918 917 909 907 910 908 913 916 920 922 923
804 804 802 800 799 798 797 797 794 792 792 795 799 802 806 810 813 816 818 821 824 840 858 857 858 857 857 857 858 870 875 869 874 874 890 902 900 910 916 908 900 902 905 912 908 905 908 909 911 913 915 917 919 921
799 798 796 795 795 793 790 789 791 789 789 790 794 797 802 807 809 814 815 819 821 833 855 862 859 858 858 857 859 859 859 864 869 875 890 899 899 900 905 893 898 900 902 905 906 905 908 909 908 911 914 916 918 919
794 792 791 790 789 787 789 789 788 787 785 786 790 793 798 803 807 812 816 817 819 823 858 864 861 861 859 858 858 860 860 863 872 883 892 895 895 898 906 902 900 891 889 894 885 886 894 897 904 908 912 915 917 918
789 787 787 786 784 783 782 782 783 782 780 781 784 789 794 799 805 812 818 818 818 819 838 866 864 862 862 860 860 862 863 866 873 882 892 891 889 895 913 899 869 872 873 873 876 885 888 894 902 907 910 913 915 916
784 782 780 781 779 779 780 777 774 775 776 776 780 784 791 796 802 804 808 805 811 817 833 867 869 863 863 861 865 867 868 870 874 887 887 889 890 895 908 893 861 867 871 875 878 884 898 898 902 905 909 912 914 916
778 777 775 775 774 773 772 771 771 773 771 771 775 781 789 797 802 804 802 805 810 814 827 863 880 867 863 867 871 871 877 876 881 889 890 889 896 900 899 864 864 868 873 878 880 879 883 892 899 904 908 911 913 914
772 770 769 767 767 764 762 763 767 766 766 767 770 777 790 797 797 798 805 808 810 815 836 852 853 866 860 870 872 875 875 886 888 890 888 891 903 892 848 854 857 862 863 872 881 883 888 892 898 903 906 909 912 914
766 765 761 759 758 755 754 756 759 761 761 759 772 774 782 782 789 798 811 813 813 816 824 841 844 857 856 867 880 878 884 890 893 887 889 897 875 848 843 843 847 854 859 868 878 888 891 895 897 902 905 907 909 911
759 756 753 750 747 744 744 748 754 755 757 753 768 773 772 780 785 796 810 814 822 824 825 832 836 845 849 858 868 874 884 897 887 881 886 886 869 839 830 837 843 849 854 861 865 871 878 882 890 898 903 905 908 910
750 748 746 743 739 735 737 743 747 749 747 745 763 772 775 772 781 784 795 804 799 791 813 815 826 831 844 845 857 875 876 887 874 884 891 869 831 821 825 831 839 846 853 860 865 871 877 883 889 895 900 903 906 908
742 739 735 730 728 727 731 737 739 745 744 746 758 766 762 756 754 756 761 772 780 789 797 805 819 827 839 843 858 865 872 871 874 886 862 832 814 819 822 828 839 844 850 858 864 870 876 882 889 893 898 902 905 908
735 731 726 723 720 720 725 729 732 738 737 738 744 747 742 728 723 717 710 740 752 761 774 782 807 813 829 838 851 851 880 874 882 874 831 803 804 812 818 825 832 839 847 854 861 868 874 880 887 893 897 900 904 906
729 725 721 712 707 713 720 724 729 732 726 722 721 721 716 706 712 706 714 732 746 750 761 783 798 805 826 837 852 867 880 865 842 812 800 787 793 802 812 820 827 835 842 851 858 865 872 879 885 891 896 899 902 904
722 717 711 708 710 712 716 720 722 725 714 713 709 703 708 710 718 710 713 732 731 742 756 766 795 811 823 823 838 817 817 807 792 792 778 782 788 798 807 813 823 831 837 845 854 861 869 876 882 888 894 898 900 902
719 715 711 708 705 708 712 715 718 713 699 695 692 695 693 699 698 707 703 713 723 731 730 758 765 769 808 821 809 796 778 761 761 769 772 772 778 791 802 810 822 829 836 843 851 858 865 874 881 886 890 895 898 900
714 713 711 708 706 705 703 707 707 706 697 694 690 689 687 687 696 699 698 700 709 715 728 730 756 783 773 769 769 758 759 761 761 763 766 773 781 790 797 806 818 826 833 841 848 855 863 870 876 881 886 891 896 899
710 708 707 707 706 703 695 697 699 700 691 687 687 688 684 682 682 686 686 695 698 703 719 732 736 743 743 740 730 738 745 751 759 768 771 776 781 788 798 808 816 825 832 838 845 852 859 865 871 877 883 888 892 896
703 702 701 702 702 697 693 692 690 694 686 681 681 681 682 680 685 688 691 696 698 703 711 716 713 711 708 709 711 710 723 737 746 764 776 780 783 790 798 803 811 821 830 839 846 851 857 864 870 876 880 883 888 891
697 695 697 697 695 694 691 682 683 684 679 678 674 672 685 687 686 694 693 697 695 688 684 690 694 694 693 694 698 706 718 721 726 730 747 770 780 789 797 804 811 818 824 833 839 846 852 857 863 869 875 880 884 888
689 691 691 688 688 687 685 679 679 678 677 670 673 671 678 683 684 689 695 698 682 652 672 678 682 688 693 695 698 702 708 721 728 735 745 756 772 783 790 796 804 810 817 823 831 838 846 852 859 865 871 877 882 885
685 685 682 679 678 678 675 676 675 671 671 664 663 668 672 676 677 682 688 681 670 663 663 666 672 677 683 691 698 706 711 717 727 735 741 751 763 773 781 790 796 802 811 819 825 832 839 847 855 862 869 874 878 883
680 677 674 670 669 669 673 670 670 669 668 661 652 664 665 668 676 679 672 669 665 662 663 664 668 682 691 696 700 705 711 717 726 736 740 745 759 769 775 783 790 798 805 812 819 827 835 842 851 857 864 869 874 878
669 663 663 654 658 665 665 665 663 663 659 661 657 661 662 665 664 665 655 650 663 662 664 662 661 664 671 686 697 704 708 707 717 727 737 743 753 767 777 784 790 795 801 806 814 822 830 838 845 852 858 865 869 874
644 642 644 645 653 653 655 656 654 650 655 659 651 649 659 651 643 632 622 632 644 645 654 655 653 663 670 673 683 696 699 705 714 722 730 732 738 744 757 770 781 790 795 800 806 815 824 832 840 847 852 858 865 870
627 629 635 640 642 644 646 642 640 642 644 648 647 643 643 625 616 606 606 607 623 629 640 648 644 642 648 665 677 684 693 698 704 706 717 728 737 742 741 747 757 765 779 790 798 804 813 822 833 842 848 855 860 865
617 628 628 632 633 629 626 627 626 626 626 632 638 626 603 590 584 596 599 595 598 613 627 639 646 651 652 655 664 675 690 702 709 716 728 737 742 746 750 755 759 765 775 784 791 801 810 818 828 836 842 849 855 861
620 622 620 623 630 623 621 614 607 604 611 618 607 600 592 589 586 588 587 585 594 604 621 634 640 648 656 662 668 670 675 685 697 714 721 729 737 741 746 751 756 764 771 781 790 796 806 815 823 830 838 844 850 857
609 601 603 609 616 609 600 599 600 602 604 606 612 607 597 590 581 577 580 585 591 594 599 609 622 634 644 653 663 670 673 675 671 674 695 707 709 721 731 740 749 757 766 776 785 795 806 814 823 831 837 843 849 856
585 589 594 587 587 577 582 588 593 598 602 601 599 603 599 593 581 578 581 582 586 595 601 606 615 621 631 643 649 657 665 670 675 679 684 692 700 709 718 730 740 748 759 768 778 789 799 808 815 823 832 838 843 849
572 573 573 591 586 586 586 589 594 594 594 592 595 604 600 593 586 580 578 580 586 588 588 594 602 608 611 615 622 633 635 651 662 672 679 685 695 706 718 729 739 745 754 763 772 783 793 801 810 818 826 832 838 843
567 566 561 577 580 582 584 583 587 592 594 594 595 597 588 582 576 571 571 573 577 577 583 590 597 604 612 619 625 634 639 647 657 667 676 684 693 702 715 726 734 742 749 759 769 780 789 796 805 814 821 828 834 839